Claresholm, Alberta

10:17 PM MDT on August 18, 2017 (GMT -0600)
Claresholm

Weather History for CWDK - January, 2013

Change the Weather History Date:

Monday, January 28, 2013

  Actual Average Record
Temperature  
Mean Temperature 28 °F -  
Max Temperature 38 °F - - ()
Min Temperature 17 °F - - ()
Degree Days  
Heating Degree Days 38    
Moisture  
Dew Point 11 °F    
Average Humidity 52    
Maximum Humidity 82    
Minimum Humidity 20    
Precipitation  
Precipitation 0.00 in - - ()
Sea Level Pressure  
Sea Level Pressure 29.78 in    
Wind  
Wind Speed 8 mph ()    
Max Wind Speed 20 mph    
Max Gust Speed 30 mph    
T = Trace of Precipitation, MM = Missing Value Source: Averaged Metar Reports

Daily Weather History Graph

Daily Weather History Graph

Search for Another Location

Airport or City:

Trip Planner

Search our weather history database for the weather conditions in past years. The results will help you decide how hot, cold, wet, or windy it might be!

Date:

Astronomy

Jan. 28, 2013 Rise Set
Actual Time 8:13 AM MST 5:22 PM MST
Civil Twilight 7:37 AM MST 5:57 PM MST
Nautical Twilight 6:58 AM MST 6:37 PM MST
Astronomical Twilight 6:20 AM MST 7:15 PM MST
Moon 7:38 PM MST (1/28) 8:26 AM MST (1/28)
Length of Visible Light 10h 20m
Length of Day
9h 09m
Full, 97% of the Moon is Illuminated
Jan 28
Full
Feb 3
Last Quarter
Feb 10
New
Feb 17
First Quarter
Feb 25
Full

Hourly Weather History & Observations

Time (MST) Temp. Windchill Dew Point Humidity Pressure Visibility Wind Dir Wind Speed Gust Speed Precip Events Conditions
12:00 AM 24.3 °F 17.3 °F 13.6 °F 64% 29.80 in - NW 5.8 mph - N/A   Unknown
1:00 AM 22.5 °F 15.1 °F 12.6 °F 66% 29.79 in - WNW 5.8 mph - N/A   Unknown
2:00 AM 26.1 °F 18.4 °F 13.6 °F 59% 29.78 in - NNW 6.9 mph - N/A   Unknown
3:00 AM 24.3 °F 16.3 °F 12.4 °F 61% 29.79 in - NW 6.9 mph - N/A   Unknown
4:00 AM 23.2 °F - 11.8 °F 62% 29.80 in - North 2.3 mph - N/A   Unknown
5:00 AM 24 °F - 12 °F 46% 29.81 in - West 3.5 mph - -  
5:00 AM 23.5 °F 19.1 °F 11.7 °F 61% 29.81 in - West 3.5 mph - N/A   Unknown
6:00 AM 25.2 °F 18.3 °F 11.3 °F 56% 29.80 in - West 5.8 mph - N/A   Unknown
7:00 AM 22.6 °F - 10.4 °F 59% 29.82 in - South 1.2 mph - N/A   Unknown
8:00 AM 23.7 °F 19.3 °F 12.0 °F 61% 29.81 in - West 3.5 mph - N/A   Unknown
9:00 AM 26.6 °F 17.5 °F 12.9 °F 56% 29.79 in - West 9.2 mph - N/A   Unknown
10:00 AM 30.9 °F 20.2 °F 12.7 °F 47% 29.77 in - West 15.0 mph - N/A   Unknown
11:00 AM 35 °F - 11 °F 24% 29.77 in - West 18.4 mph - -  
11:00 AM 34.5 °F 23.8 °F 11.5 °F 39% 29.77 in - West 18.4 mph 25.3 mph N/A   Unknown
12:00 PM 35.6 °F 25.2 °F 9.0 °F 33% 29.75 in - West 18.4 mph 24.2 mph N/A   Unknown
1:00 PM 37.0 °F 27.7 °F 9.0 °F 31% 29.73 in - West 16.1 mph - N/A   Unknown
2:00 PM 36.1 °F 27.7 °F 7.0 °F 30% 29.72 in - West 12.7 mph - N/A   Unknown
3:00 PM 38.3 °F 31.4 °F 4.1 °F 24% 29.70 in - WNW 10.4 mph - N/A   Unknown
4:00 PM 36.7 °F 29.9 °F 3.4 °F 25% 29.70 in - NW 9.2 mph - N/A   Unknown
5:00 PM 31 °F - 6 °F 20% 29.71 in - NW 8.1 mph - -  
5:00 PM 31.1 °F 23.7 °F 5.5 °F 34% 29.71 in - NW 8.1 mph - N/A   Unknown
6:00 PM 23.7 °F 13.3 °F 7.3 °F 50% 29.74 in - WNW 10.4 mph - N/A   Unknown
7:00 PM 25.5 °F 14.9 °F 10.6 °F 53% 29.78 in - NNW 11.5 mph 29.9 mph N/A   Unknown
8:00 PM 20.7 °F 5.7 °F 15.3 °F 80% 29.83 in - NNW 18.4 mph 25.3 mph N/A   Unknown
9:00 PM 19.9 °F 4.3 °F 15.3 °F 82% 29.85 in - North 19.6 mph - N/A   Unknown
10:00 PM 19.0 °F 3.6 °F 14.0 °F 81% 29.87 in - North 18.4 mph 26.5 mph N/A   Unknown
11:00 PM 18 °F - 13 °F 75% 29.88 in - North 15.0 mph - -  
11:00 PM 18.5 °F 4.3 °F 13.5 °F 81% 29.88 in - North 15.0 mph - N/A   Unknown